Regional Weather Roundup
Issued by NWS

Home | Current Version | Previous Version | Graphics & Text | Print | Product List | Glossary On
Versions: 1 2 3 4 5 6 7 8 9 10 11 12 13 14 15 16 17 18 19 20 21 22 23 24 25 26 27 28 29 30 31 32 33 34 35 36 37 38 39 40 41 42 43 44 45 46 47 48 49 50
000
ASUS43 KBIS 190710
RWRND

NORTH DAKOTA REGIONAL WEATHER ROUNDUP
NATIONAL WEATHER SERVICE BISMARCK ND
200 AM CDT TUE SEP 19 2017

NOTE: "FAIR" INDICATES FEW OR NO CLOUDS BELOW 12,000 FEET WITH NO
SIGNIFICANT WEATHER AND/OR OBSTRUCTIONS TO VISIBILITY.


NDZ001>003-009>011-017-190800-
NORTHWEST NORTH DAKOTA

CITY           SKY/WX    TMP DP  RH WIND       PRES   REMARKS
WILLISTON      CLOUDY    62  45  53 SE14G23   29.58F
MINOT          PTCLDY    51  48  89 E5        29.69F
MINOT AFB      CLOUDY    50  48  92 SE7       29.68F
$$

NDZ018>021-031>035-040>046-190800-
SOUTHWEST NORTH DAKOTA

CITY           SKY/WX    TMP DP  RH WIND       PRES   REMARKS
BISMARCK       PTCLDY    52  49  89 E9        29.72F
DICKINSON      PTCLDY    59  42  53 SE12G22   29.62F
GARRISON         N/A     53  49  86 E9        29.69F
HETTINGER ARPT CLOUDY    63  48  58 SE22G28   29.63F
$$

NDZ004>008-012>016-024-026-027-054-190800-
NORTHEAST NORTH DAKOTA

CITY           SKY/WX    TMP DP  RH WIND       PRES   REMARKS
GRAND FORKS    CLOUDY    60  58  92 SE12      29.81F
GRND FRKS AFB  CLOUDY    59  57  94 SE9       29.82F
DEVILS LAKE    FOG       57  55  94 SE12      29.77F VSB 3/4
$$

NDZ022-023-025-028>030-036>039-047>053-190800-
SOUTHEAST NORTH DAKOTA

CITY           SKY/WX    TMP DP  RH WIND       PRES   REMARKS
FARGO          CLOUDY    61  59  93 SE15G21   29.83S
JAMESTOWN      FOG       53  53 100 E5        29.76F VSB 1/4
$$





USA.gov is the U.S. government's official web portal to all federal, state and local government web resources and services.